Location: Unspecified
(0.0000°N, 0.0000°E)
Time: 03:38:13
(UTC+00:00)

Tiangong - Pass Details

Date: 05 March 2026
Orbit: 380 x 389 km, 41.5° (Epoch: 16 March)

Event Time Altitude Azimuth Distance (km) Brightness Sun altitude
Exits shadow 04:08:18 11° 87° (E) 1,344 1.5 -30.6°
Drops below altitude 10° 04:08:30 10° 85° (E) 1,408 1.6 -30.6°
Sets 04:10:54 0° 68° (ENE) 2,262 2.6 -30.0°
